Location: New York
(40.7127°N, 74.0060°W)
Time: 17:16:28
(UTC-04:00)

VELOX 1 - Pass Details

Date: 26 April 2024
Orbit: 605 x 617 km, 98.3° (Epoch: 27 May)

Event Time Altitude Azimuth Distance (km) Brightness Sun altitude
Rises 20:24:37 0° 22° (NNE) 2,901 ? -7.3°
Maximum altitude 20:30:58 36° 98° (E) 986 ? -8.4°
Drops below altitude 10° 20:34:56 10° 165° (SSE) 1,973 ? -9.1°
Sets 20:37:14 0° 174° (S) 2,872 ? -9.4°
